Location: Bacharowice
(49.9333°N, 19.5833°E)
Time: 02:06:24
(UTC+00:00)

Cosmos 1607 - Pass Details

Date: 11 May 2021
Orbit: 909 x 993 km, 65.0° (Epoch: 22 June)

Event Time Altitude Azimuth Distance (km) Brightness Sun altitude
Exits shadow 22:26:51 42° 177° (S) 1,370 4.3 -21.9°
Maximum altitude 22:28:48 59° 122° (ESE) 1,134 4.1 -21.9°
Drops below altitude 10° 22:35:09 10° 45° (NE) 2,765 6.9 -21.9°
Sets 22:37:47 0° 42° (NE) 3,716 7.8 -21.9°
